When you browse on this site, cookies collect data to enhance your experience and personalize the content and advertising you see.
Visit our Privacy Policy to learn more. By continuing to use the site, you agree to this use of cookies and data.
  • En España
  • Lista de países
  • Para 7 días
  • Temperatura del agua
  • Mapa Satelital
  • El tiempo en el mapa
  • Informadores
  • user-avatar
    Iniciar sesión

    Tiempo cada hora Uige

    Hoy, 21 Julio, Domingo

    Tiempo Temperatura Precipitaciones Viento Presión Humedad
    00:00 +17°C° 0 mm 0 mps 693 mmHg 86%
    01:00 +16°C° 0 mm 0 mps 693 mmHg 94%
    02:00 +16°C° 0 mm 0 mps 693 mmHg 95%
    03:00 +15°C° 0 mm 0 mps 692 mmHg 96%
    04:00 +15°C° 0 mm 0 mps 692 mmHg 97%
    05:00 +18°C° 0 mm 1 mps 693 mmHg 94%
    06:00 +18°C° 0 mm 1 mps 693 mmHg 91%
    07:00 +19°C° 0 mm 1 mps 694 mmHg 89%
    08:00 +22°C° 0 mm 1 mps 694 mmHg 73%
    09:00 +25°C° 0 mm 1 mps 695 mmHg 57%
    10:00 +28°C° 0 mm 1 mps 695 mmHg 41%
    11:00 +31°C° 0 mm 1 mps 695 mmHg 33%
    12:00 +34°C° 0 mm 1 mps 695 mmHg 26%
    13:00 +37°C° 0 mm 1 mps 694 mmHg 18%
    14:00 +36°C° 0 mm 1 mps 693 mmHg 18%
    15:00 +35°C° 0 mm 1 mps 692 mmHg 18%
    16:00 +35°C° 0 mm 2 mps 691 mmHg 18%
    17:00 +31°C° 0 mm 1 mps 691 mmHg 24%
    18:00 +27°C° 0 mm 1 mps 691 mmHg 31%
    19:00 +24°C° 0 mm 1 mps 691 mmHg 38%
    20:00 +23°C° 0 mm 1 mps 692 mmHg 41%
    21:00 +22°C° 0 mm 1 mps 692 mmHg 45%
    22:00 +21°C° 0 mm 1 mps 693 mmHg 49%
    23:00 +20°C° 0 mm 1 mps 692 mmHg 57%

    Mañana, 22 Julio, Lunes

    Tiempo Temperatura Precipitaciones Viento Presión Humedad
    00:00 +19°C° 0 mm 1 mps 692 mmHg 65%
    01:00 +18°C° 0 mm 1 mps 692 mmHg 73%
    02:00 +16°C° 0 mm 1 mps 691 mmHg 78%
    03:00 +16°C° 0 mm 1 mps 691 mmHg 84%
    04:00 +15°C° 0 mm 1 mps 691 mmHg 89%
    05:00 +15°C° 0 mm 1 mps 691 mmHg 88%
    06:00 +16°C° 0 mm 1 mps 692 mmHg 86%
    07:00 +16°C° 0 mm 1 mps 692 mmHg 85%
    08:00 +21°C° 0 mm 1 mps 693 mmHg 68%
    09:00 +25°C° 0 mm 1 mps 694 mmHg 52%
    10:00 +29°C° 0 mm 2 mps 694 mmHg 35%
    11:00 +31°C° 0 mm 2 mps 694 mmHg 30%
    12:00 +34°C° 0 mm 2 mps 693 mmHg 24%
    13:00 +36°C° 0 mm 2 mps 692 mmHg 19%
    14:00 +36°C° 0 mm 2 mps 692 mmHg 19%
    15:00 +35°C° 0 mm 2 mps 691 mmHg 19%
    16:00 +35°C° 0 mm 3 mps 690 mmHg 19%
    17:00 +31°C° 0 mm 2 mps 690 mmHg 26%
    18:00 +28°C° 0 mm 2 mps 690 mmHg 32%
    19:00 +24°C° 0 mm 1 mps 690 mmHg 39%
    20:00 +23°C° 0 mm 1 mps 691 mmHg 46%
    21:00 +21°C° 0 mm 1 mps 691 mmHg 54%
    22:00 +19°C° 0 mm 1 mps 691 mmHg 61%
    23:00 +18°C° 0 mm 1 mps 691 mmHg 70%

    Pasado mañana, 23 Julio, Martes

    Tiempo Temperatura Precipitaciones Viento Presión Humedad
    00:00 +16°C° 0 mm 1 mps 691 mmHg 79%
    01:00 +15°C° 0 mm 1 mps 690 mmHg 88%
    02:00 +15°C° 0 mm 1 mps 690 mmHg 91%
    03:00 +15°C° 0 mm 1 mps 690 mmHg 94%
    04:00 +13°C° 0 mm 0 mps 690 mmHg 97%
    05:00 +14°C° 0 mm 0 mps 691 mmHg 95%
    06:00 +15°C° 0 mm 1 mps 692 mmHg 93%
    07:00 +16°C° 0 mm 1 mps 692 mmHg 91%
    08:00 +21°C° 0 mm 1 mps 693 mmHg 72%
    09:00 +25°C° 0 mm 1 mps 694 mmHg 53%
    10:00 +30°C° 0 mm 1 mps 694 mmHg 34%
    11:00 +31°C° 0 mm 1 mps 694 mmHg 29%
    12:00 +33°C° 0 mm 1 mps 693 mmHg 24%
    13:00 +36°C° 0 mm 2 mps 692 mmHg 20%
    14:00 +36°C° 0 mm 2 mps 692 mmHg 20%
    15:00 +35°C° 0 mm 2 mps 691 mmHg 20%
    16:00 +35°C° 0 mm 3 mps 691 mmHg 20%
    17:00 +31°C° 0 mm 2 mps 691 mmHg 27%
    18:00 +28°C° 0 mm 2 mps 691 mmHg 34%
    19:00 +24°C° 0 mm 1 mps 691 mmHg 41%
    20:00 +23°C° 0 mm 1 mps 691 mmHg 47%
    21:00 +21°C° 0 mm 1 mps 691 mmHg 54%
    22:00 +17°C° 0 mm 0 mps 691 mmHg 61%
    23:00 +17°C° 0 mm 0 mps 691 mmHg 66%

    24 Julio, Miércoles

    Tiempo Temperatura Precipitaciones Viento Presión Humedad
    00:00 +16°C° 0 mm 0 mps 690 mmHg 71%
    01:00 +15°C° 0 mm 0 mps 690 mmHg 77%
    02:00 +14°C° 0 mm 0 mps 690 mmHg 80%
    03:00 +15°C° 0 mm 1 mps 689 mmHg 84%
    04:00 +14°C° 0 mm 1 mps 689 mmHg 88%
    05:00 +14°C° 0 mm 0 mps 690 mmHg 86%
    06:00 +14°C° 0 mm 0 mps 691 mmHg 83%
    07:00 +15°C° 0 mm 0 mps 691 mmHg 81%
    08:00 +20°C° 0 mm 0 mps 692 mmHg 65%
    09:00 +25°C° 0 mm 0 mps 693 mmHg 50%
    10:00 +29°C° 0 mm 0 mps 694 mmHg 34%
    11:00 +33°C° 0 mm 1 mps 693 mmHg 29%
    12:00 +35°C° 0 mm 1 mps 692 mmHg 25%
    13:00 +37°C° 0 mm 2 mps 692 mmHg 20%
    14:00 +37°C° 0 mm 2 mps 691 mmHg 21%
    15:00 +36°C° 0 mm 2 mps 691 mmHg 22%
    16:00 +35°C° 0 mm 3 mps 690 mmHg 22%
    17:00 +31°C° 0 mm 2 mps 690 mmHg 30%
    18:00 +28°C° 0 mm 1 mps 690 mmHg 37%
    19:00 +24°C° 0 mm 1 mps 690 mmHg 45%
    20:00 +23°C° 0 mm 1 mps 691 mmHg 52%
    21:00 +21°C° 0 mm 1 mps 691 mmHg 60%
    22:00 +19°C° 0 mm 1 mps 692 mmHg 68%
    23:00 +19°C° 0 mm 1 mps 691 mmHg 74%

    25 Julio, Jueves

    Tiempo Temperatura Precipitaciones Viento Presión Humedad
    00:00 +18°C° 0 mm 1 mps 691 mmHg 80%
    01:00 +15°C° 0 mm 0 mps 691 mmHg 85%
    02:00 +14°C° 0 mm 0 mps 691 mmHg 88%
    03:00 +14°C° 0 mm 0 mps 691 mmHg 91%
    04:00 +13°C° 0 mm 0 mps 691 mmHg 94%
    05:00 +15°C° 0 mm 1 mps 691 mmHg 92%
    06:00 +15°C° 0 mm 1 mps 692 mmHg 89%
    07:00 +16°C° 0 mm 1 mps 692 mmHg 87%
    08:00 +21°C° 0 mm 1 mps 693 mmHg 70%
    09:00 +25°C° 0 mm 1 mps 693 mmHg 54%
    10:00 +30°C° 0 mm 1 mps 694 mmHg 37%
    11:00 +32°C° 0 mm 1 mps 694 mmHg 32%
    12:00 +35°C° 0 mm 2 mps 693 mmHg 27%
    13:00 +37°C° 0 mm 2 mps 693 mmHg 23%
    14:00 +36°C° 0 mm 2 mps 692 mmHg 22%
    15:00 +36°C° 0 mm 2 mps 692 mmHg 22%
    16:00 +36°C° 0 mm 3 mps 691 mmHg 22%
    17:00 +31°C° 0 mm 2 mps 691 mmHg 29%
    18:00 +28°C° 0 mm 2 mps 691 mmHg 37%
    19:00 +25°C° 0 mm 2 mps 691 mmHg 44%
    20:00 +23°C° 0 mm 1 mps 691 mmHg 51%
    21:00 +22°C° 0 mm 1 mps 692 mmHg 58%
    22:00 +20°C° 0 mm 1 mps 692 mmHg 65%
    23:00 +19°C° 0 mm 1 mps 692 mmHg 72%

    26 Julio, Viernes

    Tiempo Temperatura Precipitaciones Viento Presión Humedad
    00:00 +18°C° 0 mm 1 mps 691 mmHg 79%
    01:00 +16°C° 0 mm 1 mps 691 mmHg 86%
    02:00 +15°C° 0 mm 1 mps 691 mmHg 90%
    03:00 +14°C° 0 mm 1 mps 691 mmHg 93%
    04:00 +14°C° 0 mm 1 mps 691 mmHg 97%
    05:00 +14°C° 0 mm 1 mps 691 mmHg 95%
    06:00 +15°C° 0 mm 1 mps 692 mmHg 93%
    07:00 +15°C° 0 mm 1 mps 692 mmHg 91%
    08:00 +21°C° 0 mm 1 mps 693 mmHg 72%
    09:00 +25°C° 0 mm 1 mps 694 mmHg 54%
    10:00 +30°C° 0 mm 1 mps 694 mmHg 36%
    11:00 +32°C° 0 mm 1 mps 694 mmHg 30%
    12:00 +34°C° 0 mm 1 mps 693 mmHg 24%
    13:00 +37°C° 0 mm 1 mps 693 mmHg 18%
    14:00 +37°C° 0 mm 2 mps 692 mmHg 18%
    15:00 +37°C° 0 mm 2 mps 691 mmHg 18%
    16:00 +37°C° 0 mm 2 mps 690 mmHg 18%
    17:00 +32°C° 0 mm 2 mps 690 mmHg 26%
    18:00 +28°C° 0 mm 1 mps 690 mmHg 34%
    19:00 +25°C° 0 mm 1 mps 690 mmHg 42%
    20:00 +23°C° 0 mm 1 mps 690 mmHg 49%
    21:00 +21°C° 0 mm 1 mps 691 mmHg 57%
    22:00 +20°C° 0 mm 1 mps 691 mmHg 65%
    23:00 +18°C° 0 mm 1 mps 691 mmHg 73%
    Mostrar más